Weather reports worldwide

Advertisment
Waibstadt, Germany (10733): temperature & dewpoint: 01.08.2020 03:00:00 - 07.08.2020 03:00:00 (CEST)Waibstadt, Germany (10733): temperature 5cm & temperature -5cm: 01.08.2020 03:00:00 - 07.08.2020 03:00:00 (CEST)Waibstadt, Germany (10733): temperature -20cm & temperature -100cm: 01.08.2020 03:00:00 - 07.08.2020 03:00:00 (CEST)Waibstadt, Germany (10733): wind speed & gusts: 01.08.2020 03:00:00 - 07.08.2020 03:00:00 (CEST)Waibstadt, Germany (10733): wind direction: 01.08.2020 03:00:00 - 07.08.2020 03:00:00 (CEST)Waibstadt, Germany (10733): reduced air pressure: 01.08.2020 03:00:00 - 07.08.2020 03:00:00 (CEST)Waibstadt, Germany (10733): visibility: 01.08.2020 03:00:00 - 07.08.2020 03:00:00 (CEST)Waibstadt, Germany (10733): sunshine duration: 01.08.2020 03:00:00 - 07.08.2020 03:00:00 (CEST)Waibstadt, Germany (10733): precipitation: 01.08.2020 03:00:00 - 07.08.2020 03:00:00 (CEST)
Date & Time tt [°C] td [°C] tt 5cm [°C] tt -5cm [°C] tt -20cm [°C] tt -100cm [°C] ff [km/h] ff [kn] fx [km/h] fx [kn] dd ppp [hPa] vv [km] sd [min] rr [mm]
07.08.2020 03:00:00 - - - - - - - - - - - - - - -
07.08.2020 02:00:00 17,8 14,2 15,5 19,1 22,5 19,6 4 2 6 3 ESE 1020,3 47 0 0,0
07.08.2020 01:00:00 18,8 14,6 16,4 19,8 22,9 19,6 4 2 10 5 ENE 1020,2 53 0 0,0
07.08.2020 00:00:00 20,0 14,5 16,7 20,6 23,3 19,6 4 2 5 3 E 1019,9 58 0 0,0
06.08.2020 23:00:00 21,2 15,1 18,7 21,6 23,6 19,6 5 3 8 4 E 1019,6 56 0 0,0
06.08.2020 22:00:00 23,3 14,9 19,3 22,5 24,0 19,6 4 2 6 3 ENE 1019,2 72 0 0,0
06.08.2020 21:00:00 24,9 13,4 21,0 23,9 24,2 19,6 4 2 10 5 ESE 1018,6 58 28 0,0
06.08.2020 20:00:00 27,0 13,0 25,3 25,3 24,3 19,7 6 3 20 11 ESE 1018,2 74 60 0,0
06.08.2020 19:00:00 27,7 12,5 28,0 26,6 24,3 19,7 13 7 21 11 ESE 1017,8 57 60 0,0
06.08.2020 18:00:00 28,1 12,7 29,9 28,3 24,1 19,7 13 7 24 13 SE 1017,9 53 60 0,0
06.08.2020 17:00:00 28,1 12,8 31,4 30,4 23,7 19,7 11 6 24 13 SE 1018,1 43 60 0,0
06.08.2020 16:00:00 28,4 13,8 32,6 31,4 23,1 19,7 17 9 28 15 ESE 1018,2 61 60 0,0
06.08.2020 15:00:00 27,3 12,7 32,2 31,9 22,3 19,7 13 7 25 13 SE 1018,7 60 60 0,0
06.08.2020 14:00:00 27,6 14,3 32,6 31,9 21,5 19,7 11 6 31 17 ESE 1019,0 55 60 0,0
06.08.2020 13:00:00 26,8 13,5 31,0 31,0 20,6 19,7 14 8 30 16 E 1019,4 53 60 0,0
06.08.2020 12:00:00 25,4 13,4 28,9 29,2 19,8 19,7 16 8 27 14 ESE 1019,8 51 60 0,0
06.08.2020 11:00:00 24,6 12,4 30,0 26,6 19,1 19,7 14 8 25 13 E 1020,1 75 60 0,0
06.08.2020 10:00:00 22,9 13,3 26,6 24,0 18,6 19,7 8 4 14 8 E 1020,4 68 60 0,0
06.08.2020 09:00:00 19,2 12,4 22,0 21,0 18,3 19,7 6 4 14 7 E 1020,5 66 60 0,0
06.08.2020 08:00:00 16,1 11,4 17,1 17,3 18,3 19,7 5 3 8 4 ESE 1020,6 63 57 0,0
06.08.2020 07:00:00 13,7 10,8 12,5 14,8 18,6 19,7 4 2 10 5 ENE 1020,6 59 0 0,0
06.08.2020 06:00:00 12,2 10,7 10,8 14,2 18,9 19,8 6 3 9 5 E 1020,1 38 0 0,0
06.08.2020 05:00:00 12,4 10,8 11,0 14,4 19,2 19,8 6 3 7 4 E 1019,9 47 0 0,0
06.08.2020 04:00:00 13,5 10,9 11,5 14,8 19,5 19,8 4 2 10 5 ESE 1019,9 48 0 0,0
06.08.2020 03:00:00 13,5 11,0 11,9 15,3 19,9 19,8 4 2 10 5 NNE 1019,7 51 0 0,0
06.08.2020 02:00:00 14,7 11,2 12,4 15,8 20,3 19,8 5 3 11 6 E 1019,7 62 0 0,0
06.08.2020 01:00:00 15,6 11,4 13,1 16,4 20,7 19,8 5 3 7 4 E 1019,5 57 0 0,0
06.08.2020 00:00:00 16,6 11,5 13,4 17,0 21,0 19,8 4 2 6 4 ESE 1019,2 66 0 0,0
05.08.2020 23:00:00 18,2 11,5 14,7 17,7 21,4 19,8 5 3 8 5 NE 1018,6 56 0 0,0
05.08.2020 22:00:00 20,4 10,3 18,1 18,5 21,8 19,8 8 4 16 9 SE 1018,1 75 0 0,0
05.08.2020 21:00:00 21,8 10,0 19,4 19,6 22,1 19,9 12 6 18 10 SE 1017,3 71 27 0,0
05.08.2020 20:00:00 23,3 9,9 21,0 20,8 22,3 19,9 12 6 22 12 ESE 1016,9 75 60 0,0
05.08.2020 19:00:00 25,0 9,3 25,8 22,0 22,4 19,9 11 6 21 11 E 1016,4 71 60 0,0
05.08.2020 18:00:00 25,5 8,5 27,2 23,4 22,3 19,9 11 6 26 14 E 1016,5 51 60 0,0
05.08.2020 17:00:00 25,6 9,9 28,1 25,0 22,2 19,9 12 6 27 15 ESE 1016,7 52 56 0,0
05.08.2020 16:00:00 25,4 8,5 29,1 26,2 21,9 19,9 11 6 26 14 ESE 1016,9 75 49 0,0
05.08.2020 15:00:00 25,2 9,6 28,9 26,4 21,5 19,9 11 6 29 15 SE 1017,3 53 53 0,0
05.08.2020 14:00:00 24,8 8,7 30,0 27,9 20,8 19,9 13 7 23 13 E 1017,9 70 59 0,0
05.08.2020 13:00:00 23,5 10,2 27,0 28,1 20,1 19,9 8 5 22 12 ESE 1018,3 61 60 0,0
05.08.2020 12:00:00 22,6 10,7 26,5 27,4 19,3 19,9 8 4 16 9 E 1018,7 75 60 0,0
05.08.2020 11:00:00 20,7 12,5 24,4 25,5 18,6 19,9 6 4 13 7 E 1019,3 62 60 0,0
05.08.2020 10:00:00 19,0 12,3 23,1 23,2 18,1 19,9 6 4 14 7 ESE 1019,4 48 60 0,0
05.08.2020 09:00:00 15,7 12,1 18,0 19,7 17,8 20,0 6 3 10 5 E 1019,9 45 60 0,0
05.08.2020 08:00:00 13,9 11,6 14,3 15,9 17,9 20,0 6 3 9 5 E 1019,9 32 58 0,0
05.08.2020 07:00:00 11,5 10,7 10,9 13,7 18,1 20,0 6 3 9 5 E 1019,8 15 0 0,0
05.08.2020 06:00:00 10,7 10,3 9,8 13,3 18,4 20,0 5 3 8 4 ENE 1019,7 7 0 0,0
05.08.2020 05:00:00 10,9 10,4 10,2 13,6 18,8 20,0 5 3 6 3 ESE 1019,4 9 0 0,0
05.08.2020 04:00:00 11,6 10,9 10,3 14,0 19,1 20,0 3 1 5 3 E 1019,4 18 0 0,0
05.08.2020 03:00:00 11,9 11,1 10,8 14,6 19,4 20,0 5 3 8 4 E 1018,8 19 0 0,0
05.08.2020 02:00:00 12,5 11,6 11,4 15,0 19,8 20,0 5 3 7 4 NE 1018,9 24 0 0,0
05.08.2020 01:00:00 13,6 12,0 12,0 15,6 20,1 20,0 4 2 8 4 E 1018,7 42 0 0,0
05.08.2020 00:00:00 14,6 11,9 12,5 16,2 20,5 20,0 4 2 6 4 E 1018,5 50 0 0,0
04.08.2020 23:00:00 15,7 11,8 13,3 16,8 20,8 20,0 4 2 14 8 E 1018,4 47 0 0,0
04.08.2020 22:00:00 17,6 11,2 15,7 17,6 21,2 20,0 10 5 16 8 S 1017,8 59 0 0,0
04.08.2020 21:00:00 18,5 11,1 16,8 18,6 21,4 20,0 11 6 14 8 SSW 1017,0 67 25 0,0
04.08.2020 20:00:00 20,7 11,4 19,2 19,9 21,5 20,1 9 5 13 7 WSW 1016,6 63 49 0,0
04.08.2020 19:00:00 22,0 9,0 21,7 20,8 21,6 20,1 5 3 13 7 W 1016,2 59 57 0,0
04.08.2020 18:00:00 22,1 8,7 24,0 21,8 21,6 20,1 8 4 19 11 WNW 1016,0 56 59 0,0
04.08.2020 17:00:00 22,6 9,7 26,2 22,7 21,5 20,1 9 5 18 10 NNW 1016,0 75 11 0,0
04.08.2020 16:00:00 21,6 10,5 23,8 22,5 21,5 20,1 7 4 14 8 W 1015,9 61 4 0,0
04.08.2020 15:00:00 21,0 11,5 22,5 22,8 21,3 20,1 6 3 14 8 WNW 1015,9 56 0 0,0
04.08.2020 14:00:00 20,7 11,0 22,0 24,1 21,0 20,1 5 3 17 9 NNW 1015,7 58 25 0,0
04.08.2020 13:00:00 19,5 12,6 21,0 23,7 20,6 20,1 9 5 21 11 WNW 1015,5 53 17 0,0
04.08.2020 12:00:00 20,3 12,9 23,6 24,9 20,0 20,1 9 5 16 9 W 1015,1 51 40 0,0
04.08.2020 11:00:00 18,9 13,1 23,7 25,1 19,4 20,1 6 3 13 7 W 1015,1 45 60 0,0
04.08.2020 10:00:00 17,0 12,0 21,5 21,6 19,0 20,1 4 2 11 6 NW 1015,0 42 56 0,0
04.08.2020 09:00:00 15,8 13,3 17,7 19,2 19,0 20,1 5 3 13 7 NW 1014,7 11 42 0,0
04.08.2020 08:00:00 13,8 13,2 14,1 16,0 19,1 20,1 8 4 10 6 W 1014,3 4,5 0 0,0
04.08.2020 07:00:00 13,6 13,2 13,6 15,7 19,3 20,1 7 4 10 6 W 1013,8 2,8 0 0,0
04.08.2020 06:00:00 13,7 13,3 13,8 15,9 19,5 20,1 8 4 13 7 W 1013,3 2,9 0 0,0
04.08.2020 05:00:00 13,9 13,5 13,8 16,1 19,7 20,1 8 5 13 7 WSW 1012,9 4,2 0 0,0
04.08.2020 04:00:00 13,9 13,4 13,9 16,3 19,9 20,1 9 5 16 9 W 1012,7 4,7 0 0,0
04.08.2020 03:00:00 14,1 13,5 14,3 16,6 20,1 20,1 10 5 20 11 W 1012,6 7 0 0,0
04.08.2020 02:00:00 13,9 13,2 14,0 16,7 20,3 20,1 10 5 17 9 W 1012,6 12 0 0,0
04.08.2020 01:00:00 14,2 13,6 14,3 17,1 20,5 20,1 6 4 10 5 W 1012,6 8 0 0,0
04.08.2020 00:00:00 14,4 13,8 14,6 17,3 20,8 20,1 4 2 11 6 W 1012,5 7 0 0,4
03.08.2020 23:00:00 14,4 13,8 14,6 17,6 21,1 20,1 8 5 15 8 SSW 1012,3 4,9 0 0,7
03.08.2020 22:00:00 14,6 13,8 14,6 17,9 21,4 20,1 11 6 20 11 W 1011,8 19 0 2,5
03.08.2020 21:00:00 14,8 13,6 14,6 18,5 21,6 20,1 15 8 33 18 W 1011,6 13 0 0,9
03.08.2020 20:00:00 17,2 15,9 17,4 20,2 21,6 20,1 9 5 14 8 W 1010,8 23 0 0,0
03.08.2020 19:00:00 17,9 15,8 18,4 20,9 21,6 20,1 6 3 9 5 S 1010,3 43 0 0,0
03.08.2020 18:00:00 18,3 15,0 19,3 21,5 21,5 20,1 4 2 9 5 S 1010,5 43 0 0,0
03.08.2020 17:00:00 17,7 15,1 19,0 21,1 21,5 20,1 3 2 7 4 SSE 1010,3 31 0 0,0
03.08.2020 16:00:00 17,1 14,5 17,7 20,3 21,5 20,0 5 3 16 8 N 1011,1 42 0 0,0
03.08.2020 15:00:00 16,8 15,2 18,1 20,4 21,6 20,0 8 5 13 7 NE 1011,3 14 0 0,8
03.08.2020 14:00:00 16,7 15,3 17,3 19,9 21,7 20,0 3 2 10 5 ESE 1012,1 13 0 2,8
03.08.2020 13:00:00 16,5 15,5 17,0 19,8 21,8 20,0 3 2 11 6 NE 1012,1 12 0 1,2
03.08.2020 12:00:00 16,0 15,1 16,9 19,5 21,9 20,0 6 4 12 7 NNW 1012,6 7 0 2,9
03.08.2020 11:00:00 15,7 14,8 16,1 19,1 22,2 20,0 6 3 11 6 NW 1012,7 7 0 2,2
03.08.2020 10:00:00 15,2 14,6 15,8 18,6 22,3 20,0 6 4 18 10 NNE 1012,7 4,2 0 13,1
03.08.2020 09:00:00 17,9 13,0 19,0 21,2 22,4 20,0 7 4 10 6 WNW 1012,3 50 0 0,0
03.08.2020 08:00:00 17,7 13,4 18,8 20,7 22,6 20,0 4 2 6 4 NNE 1012,3 50 6 0,0
03.08.2020 07:00:00 16,7 13,4 17,0 19,5 22,8 20,0 3 2 6 3 WNW 1012,5 45 0 0,0
03.08.2020 06:00:00 16,5 13,5 15,5 19,4 23,1 20,0 3 2 6 3 N 1012,4 51 0 0,0
03.08.2020 05:00:00 16,8 13,4 16,3 19,8 23,3 20,0 4 2 9 5 N 1012,1 56 0 0,0
03.08.2020 04:00:00 17,5 13,1 17,0 20,2 23,6 20,0 6 3 10 5 NW 1012,4 61 0 0,0
03.08.2020 03:00:00 17,4 13,6 17,2 20,6 23,9 20,0 4 2 10 5 NNW 1013,0 67 0 0,0
03.08.2020 02:00:00 17,3 12,5 16,7 20,9 24,2 20,0 8 4 19 10 NNW 1013,2 62 0 0,0
03.08.2020 01:00:00 19,1 11,4 18,9 21,5 24,5 20,0 15 8 34 19 E 1013,1 67 0 0,0
03.08.2020 00:00:00 20,4 13,7 19,9 22,7 24,8 20,0 11 6 19 11 N 1012,8 66 0 0,0
02.08.2020 23:00:00 21,1 14,7 20,2 23,1 25,1 19,9 4 2 16 9 S 1012,6 51 0 0,0
02.08.2020 22:00:00 21,7 14,8 21,1 23,9 25,4 19,9 11 6 14 7 SSW 1012,6 55 0 0,0
02.08.2020 21:00:00 22,1 14,6 21,4 25,0 25,6 19,9 8 4 11 6 SW 1012,3 51 8 0,0
02.08.2020 20:00:00 24,1 14,4 24,3 26,9 25,7 19,9 9 5 14 8 WSW 1012,1 55 33 0,0
02.08.2020 19:00:00 24,0 14,0 25,0 27,7 25,8 19,9 9 5 14 8 SW 1012,5 48 0 0,0
02.08.2020 18:00:00 24,3 12,7 25,4 28,4 25,7 19,9 6 4 13 7 WNW 1012,8 71 0 0,0
02.08.2020 17:00:00 24,9 13,0 28,0 30,3 25,5 19,9 5 3 21 11 NW 1012,8 52 9 0,0
02.08.2020 16:00:00 25,5 13,0 30,8 31,8 25,1 19,9 14 7 26 14 WNW 1012,8 62 35 0,0
02.08.2020 15:00:00 26,4 14,0 35,4 32,0 24,6 19,9 8 4 23 12 NNW 1013,1 53 35 0,0
02.08.2020 14:00:00 23,5 15,5 28,1 28,6 24,4 19,9 6 3 19 10 NW 1013,9 45 13 0,0
02.08.2020 13:00:00 21,3 17,7 21,8 25,8 24,3 19,9 9 5 21 11 W 1014,5 36 0 0,2
02.08.2020 12:00:00 23,0 15,4 26,0 27,3 24,2 19,9 11 6 23 13 NW 1014,3 42 0 0,0
02.08.2020 11:00:00 23,0 16,5 25,8 27,4 24,0 19,8 12 6 20 11 WNW 1014,0 38 0 0,0
02.08.2020 10:00:00 22,7 17,0 25,9 27,1 23,9 19,8 13 7 20 11 W 1013,5 29 4 0,0
02.08.2020 09:00:00 22,3 17,1 24,0 24,9 23,9 19,8 11 6 20 11 W 1013,4 36 0 0,0
02.08.2020 08:00:00 21,2 16,8 21,7 22,7 24,1 19,8 14 7 19 10 WSW 1013,3 46 0 0,0
02.08.2020 07:00:00 20,6 16,7 20,1 21,9 24,3 19,8 9 5 26 14 WSW 1013,0 45 0 0,0
02.08.2020 06:00:00 21,0 16,7 20,5 22,3 24,6 19,8 18 10 31 17 WSW 1012,5 51 0 0,0
02.08.2020 05:00:00 21,5 16,7 20,8 22,7 24,8 19,8 11 6 17 9 WSW 1012,5 50 0 0,0
02.08.2020 04:00:00 22,4 16,7 21,8 23,2 25,1 19,8 9 5 16 9 W 1012,7 49 0 0,0
02.08.2020 03:00:00 23,0 16,5 22,3 23,5 25,3 19,8 9 5 25 14 W 1012,8 46 0 0,0
02.08.2020 02:00:00 23,1 16,0 22,7 23,8 25,6 19,8 9 5 17 9 SW 1013,1 45 0 0,0
02.08.2020 01:00:00 22,0 16,5 21,2 24,0 26,0 19,8 5 3 8 5 NNW 1012,7 43 0 0,0
02.08.2020 00:00:00 22,2 16,2 20,9 24,3 26,3 19,8 5 3 8 5 E 1012,2 45 0 0,0
01.08.2020 23:00:00 23,3 16,1 21,5 24,9 26,7 19,8 5 3 6 4 ESE 1012,6 47 0 0,0
01.08.2020 22:00:00 26,2 15,6 21,8 25,8 27,1 19,7 3 2 10 5 WNW 1012,7 52 0 0,0
01.08.2020 21:00:00 26,2 15,6 24,4 27,5 27,3 19,7 9 5 10 6 WSW 1012,8 45 8 0,0
01.08.2020 20:00:00 29,3 16,1 28,3 29,5 27,4 19,7 8 4 16 8 WSW 1012,2 53 60 0,0
01.08.2020 19:00:00 30,2 15,2 32,4 31,3 27,4 19,7 9 5 18 10 W 1012,2 51 60 0,0
01.08.2020 18:00:00 30,3 15,4 34,0 33,2 27,2 19,7 8 5 17 9 W 1012,7 55 24 0,0
01.08.2020 17:00:00 29,9 14,6 35,2 34,1 27,1 19,7 10 5 19 11 WNW 1013,2 44 11 0,0
01.08.2020 16:00:00 28,1 15,6 30,0 33,3 26,9 19,7 6 4 18 10 W 1013,4 43 0 0,0
01.08.2020 15:00:00 30,4 13,8 34,4 35,4 26,5 19,7 8 4 24 13 NW 1013,4 74 5 0,0
01.08.2020 14:00:00 30,6 13,0 35,7 37,6 25,8 19,7 15 8 35 19 NW 1013,8 54 44 0,0
01.08.2020 13:00:00 30,1 12,4 35,2 35,7 25,2 19,7 11 6 30 16 WNW 1014,0 47 28 0,0
01.08.2020 12:00:00 29,0 13,2 33,2 34,4 24,6 19,7 7 4 20 11 NNW 1014,1 51 39 0,0
01.08.2020 11:00:00 27,4 11,8 33,7 33,5 24,0 19,7 14 8 26 14 WNW 1014,1 42 50 0,0
01.08.2020 10:00:00 26,7 12,5 31,5 31,6 23,5 19,7 9 5 17 9 W 1014,0 68 60 0,0
01.08.2020 09:00:00 24,5 13,0 27,5 28,0 23,3 19,6 4 2 7 4 W 1014,0 50 60 0,0
01.08.2020 08:00:00 21,0 12,4 22,6 23,6 23,4 19,6 4 2 7 4 E 1014,1 61 57 0,0
01.08.2020 07:00:00 20,0 11,4 18,9 20,6 23,7 19,6 3 2 14 8 E 1014,1 70 2 0,0
01.08.2020 06:00:00 18,8 11,1 16,3 19,9 24,1 19,6 6 3 12 6 ESE 1013,8 60 0 0,0
01.08.2020 05:00:00 19,2 11,3 16,4 20,2 24,5 19,6 8 4 15 8 E 1013,7 59 0 0,0
01.08.2020 04:00:00 19,4 11,5 16,5 20,7 25,0 19,6 8 5 14 8 E 1014,2 58 0 0,0
01.08.2020 03:00:00 19,2 11,8 16,8 21,3 25,5 19,6 7 4 8 4 E 1014,4 55 0 0,0

tt = temperature
td = dewpoint
tt 5cm = temperature 5cm
tt -5cm = temperature -5cm
tt -20cm = temperature -20cm
tt -100cm = temperature -100cm
ff = wind speed
fx = gusts
dd = wind direction
ppp = reduced air pressure
vv = visibility
sd = sunshine duration
rr = precipitation

Next stations